Vorticity
7 7 7 5 2 3 3 3 2 2 1 1 2 3 4 6 9 8 7 7 7 8
6 7 7 5 3 2 3 2 2 1 1 1 2 3 4 7 8 8 8 8 8 10
8 8 4 2 2 2 2 2 1 1 1 1 2 3 5 8 8 9 8 8 10 8
8 5 2 2 2 2 2 1 1 1 1 2 3 4 7 8 9 9 9 10 8 8
7 3 3 2 2 2 1 1 1 1 2 3 5 6 7 9 9 9 10 8 8 8
4 3 2 3 2 1 2 2 2 2 3 5 5 7 9 10 10 10 9 8 8 7
4 2 2 2 2 2 2 3 3 4 6 5 8 9 10 10 10 9 8 8 7 9
3 2 2 2 3 2 3 4 6 7 6 8 10 10 11 9 9 9 8 8 8 9
3 2 3 3 2 3 6 8 8 7 7 10 10 11 9 9 8 8 8 8 9 9
4 3 2 3 5 8 10 9 6 8 11 9 10 10 9 7 8 9 8 9 9 9
4 4 4 8 9 10 7 7 10 10 10 11 9 9 8 9 8 8 9 9 10 10
5 7 9 11 9 7 8 10 9 10 10 10 8 8 9 8 8 9 9 9 10 16
10 12 9 7 8 10 9 9 11 9 9 8 8 8 8 8 7 8 7 13 20 22
8 7 8 9 10 8 9 10 10 9 8 8 8 8 8 7 7 10 14 20 21 17
Height
3073 3075 3078 3080 3082 3083 3084 3085 3085 3084 3082 3080 3076 3072 3068 3063 3058 3053 3048 3043 3039 3034
3068 3071 3073 3076 3078 3079 3080 3080 3080 3079 3076 3073 3069 3065 3061 3055 3050 3045 3040 3035 3029 3024
3063 3066 3069 3072 3074 3075 3075 3075 3074 3073 3070 3066 3062 3058 3052 3047 3042 3037 3031 3025 3020 3014
3059 3062 3065 3068 3069 3070 3070 3069 3068 3066 3062 3059 3054 3049 3044 3038 3033 3027 3022 3016 3010 3005
3055 3058 3061 3063 3064 3065 3064 3063 3062 3059 3055 3051 3045 3040 3035 3030 3023 3018 3013 3007 3002 2995
3052 3054 3056 3058 3059 3059 3058 3057 3055 3051 3047 3042 3037 3031 3025 3020 3014 3009 3003 2997 2990 2983
3049 3050 3052 3053 3053 3053 3052 3050 3047 3043 3039 3034 3029 3023 3017 3010 3005 3000 2994 2987 2979 2972
3044 3046 3047 3047 3047 3047 3045 3042 3039 3034 3030 3025 3020 3014 3007 3001 2996 2991 2984 2977 2968 2960
3040 3041 3042 3041 3041 3040 3037 3034 3030 3026 3021 3016 3010 3004 2999 2992 2986 2979 2972 2965 2958 2949
3035 3036 3036 3035 3034 3032 3029 3025 3022 3018 3013 3007 3001 2996 2990 2983 2976 2969 2962 2954 2946 2936
3030 3030 3030 3028 3026 3024 3021 3018 3013 3009 3003 2998 2993 2988 2980 2973 2967 2960 2951 2943 2935 2925
3024 3024 3023 3022 3019 3017 3013 3009 3005 3000 2995 2991 2984 2978 2971 2964 2956 2948 2940 2933 2924 2914
3019 3018 3017 3015 3012 3009 3006 3002 2997 2992 2987 2980 2975 2968 2962 2953 2944 2938 2930 2921 2912 2904
3013 3012 3010 3008 3005 3002 2998 2994 2990 2985 2979 2972 2966 2959 2951 2945 2936 2926 2916 2909 2903 2896